Kuiper-00037

operational
NORAD ID: 63749 Int'l Des: 2025-088 Owner: KUIP Country: US Constellation: kuiper
LEOCIRCULAR

Über Kuiper-00037

Beschreibung wird geladen...

Live-Position

3D-Globus wird geladen...

Nächste Überflüge

Höhenverlauf

Altitude vs Time

uPlot chart will show altitude changes over time

Zweizeiliger Elementsatz

1 63749U 25088AB 26094.91061989 -.00007851 00000-0 -10046-2 0 9992
2 63749 51.9006 357.1114 0000414 109.7707 250.3300 14.79828341 52191
Epoch: 4. Apr. 2026 • Age: 16 hours

Aktueller Status

Höhe 641.6 km
Geschwindigkeit 7.54 km/s
Subsatellitenpunkt -36.05°S, 81.99°W
Startdatum 28. Apr. 2025
Alter 0.9 years
Typ internet

Technische Details

Klassifizierung Payload
Masse 490.00 kg
Trockenmasse 490.00 kg
Gesamtmasse 490.00 kg
Länge 1.80 m
Durchmesser 0.70 m
Spannweite 5.00 m
Form Box + 2 pan
Hersteller KUIP
Bus-Typ Kuiper
Phasenstatus In Orbit
Besitzer/Staat KUIP/US

Große Konstellationen

Loading constellations...